Find Qianfan 05-11

NORAD ID: 63169 Int'l Des: 2025-046 Owner: YUANX Country: CN Constellation: qianfan operational
LEOCIRCULARPOLAR

Live Position

Loading 3D Globe...

About Qianfan 05-11

Description loading...

Upcoming Passes

Passes for default location (London). Set your location on the main map for personalized predictions.

Altitude History

Loading altitude history...

Two-Line Element Set

1 63169U 25046L 26106.95702458 .00000065 00000-0 68358-4 0 9992
2 63169 88.9691 306.4906 0016038 103.0941 257.2007 13.62031258 64646
Epoch: Apr 16, 2026 • Age: 14 hours

Current Status

Altitude 1068.2 km
Velocity 7.31 km/s
Sub-Earth Point -83.58°S, 100.93°E
Launch Date Mar 11, 2025
Age 1.1 years
Type internet

Technical Details

Classification Payload
Mass 267.00 kg
Dry Mass 267.00 kg
Total Mass 267.00 kg
Length 0.30 m
Diameter 3.00 m
Span 10.00 m
Shape Box+pan
Manufacturer GESIH
Bus Type Qianfan
Phase Status In Orbit
Owner/State YUANX/CN

Most Searched